Torna al catalogo

FENGYUN 1C DEB

AttivoSSO
NORAD 33723·DEBRIS·🇨🇳 China

Lanciato May 10, 1999 da Taiyuan Satellite Launch Center

Loading…

Prossimi Passaggi (prossime 24 ore)

TLE

In scadenzaSource: Space-Track

Epoca: Sep 11, 2026, 01:50 UTC

1 33723U 99025DHL 26254.07657499  .00002225  00000-0  11190-2 0  9994
2 33723  99.1478 346.2333 0096780 283.0502 200.3669 14.15150766674731

Traccia FENGYUN 1C DEB in tempo reale con AllMySat

Download on the App Store